Regional Weather Roundup
Issued by NWS State College, PA

Home | Current Version | Previous Version | Graphics & Text | Print | Product List | Glossary Off
Versions: 1 2 3 4 5 6 7 8 9 10 11 12 13 14 15 16 17 18 19 20 21 22 23 24 25 26 27 28 29 30 31 32 33 34 35 36 37 38 39 40 41 42 43 44 45 46 47 48 49 50

000
ASUS41 KCTP 262103
RWRCTP

REGIONAL WEATHER ROUNDUP
NATIONAL WEATHER SERVICE STATE COLLEGE PA
500 PM EDT SUN MAR 26 2017

Note: "fair" indicates few or no clouds below 12,000 feet with no
significant weather and/or obstructions to visibility.

* = STATION THAT DOES NOT REPORT PRECIPITATION /E.G. RAIN...SNOW...ETC/
    THUNDER OR FOG.

PAZ002>004-007>009-013>016-020>023-029>032-262200-
WESTERN PENNSYLVANIA

CITY           SKY/WX    TMP DP  RH WIND       PRES   REMARKS
ERIE           LGT RAIN  65  50  58 S8        29.95R
MEADVILLE      LGT RAIN  60  48  64 S10G20    29.98R
FRANKLIN*      CLOUDY    59  45  58 SE14      30.02S
NEW CASTLE     MOCLDY    61  56  83 SE12      29.99F
BEAVER COUNTY  MOSUNNY   59  55  88 SE9       29.99
BUTLER*        CLOUDY    59  48  67 SE12      30.02F
PITTSBURGH INT CLOUDY    63  54  72 SE16      29.99F
PITTSBURGH     LGT RAIN  59  50  72 SE12      30.01F
INDIANA*       CLOUDY    52  45  76 SE10G18   30.11F
LATROBE        LGT RAIN  54  46  76 SE12      30.06F
WASHINGTON CO* MOSUNNY   66  50  55 S14G24    30.00F
$$

PAZ004>006-010>012-017>019-024>028-033>037-041-042-045-046-049>053-262200-
CENTRAL PENNSYLVANIA

CITY           SKY/WX    TMP DP  RH WIND       PRES   REMARKS
BRADFORD       CLOUDY    45  41  86 SE13G26   30.07F
DUBOIS         CLOUDY    47  40  76 SE15      30.08F
CLEARFIELD       N/A    N/A N/A N/A MISG      30.15F
JOHNSTOWN      CLOUDY    43  42  97 SE12      30.11F FOG
ALTOONA        CLOUDY    45  43  93 SE9       30.18S
STATE COLLEGE  CLOUDY    41  39  93 SE8G16    30.19F
WILLIAMSPORT   CLOUDY    45  37  73 SE16      30.24F
SELINSGROVE    CLOUDY    43  38  82 SE9       30.27F
FT INDIANTOWN  CLOUDY    41  41 100 E9        30.29F FOG
CAPITAL CITY   CLOUDY    45  40  82 E14       30.27F HAZE
HARRISBURG     CLOUDY    45  42  89 SE12      30.27F FOG
YORK           CLOUDY    45  43  93 E12       30.25F FOG
$$

PAZ038>040-043-044-047-048-054-055-060>062-067>071-262200-
EASTERN PENNSYLVANIA

CITY           SKY/WX    TMP DP  RH WIND       PRES   REMARKS
SCRANTON       CLOUDY    40  35  83 VRB7      30.28F
MOUNT POCONO   CLOUDY    32  32 100 SE9       30.27S FOG
ALLENTOWN      CLOUDY    43  35  73 E10       30.34F
QUAKERTOWN*    CLOUDY    39  37  93 E8        30.34F
READING        CLOUDY    43  39  86 E8        30.30F
LANCASTER      CLOUDY    44  42  93 SE14      30.30F FOG
COATESVILLE    CLOUDY    43  41  93 E10G24    30.31F FOG
POTTSTOWN      CLOUDY    41  38  89 E9        30.34F FOG
BLUE BELL      CLOUDY    41  37  87 E10       30.34S
DOYLESTOWN     CLOUDY    40  38  93 CALM      30.34F
WILLOW GROVE   NOT AVBL
NORTH PHILA    CLOUDY    44  39  82 E12       30.37F
PHILADELPHIA   CLOUDY    44  39  82 E14       30.35F
$$




USA.gov is the U.S. government's official web portal to all federal, state and local government web resources and services.